Temperature
18 18 18 18 18 18 17 17 17 17 16 16 16 16 16 15 15 15 15 15 15 15 14 14 14 14 14 14 14 14 14 14 14 14 14 15 15 15 15 15 15 15 15
18 18 18 18 18 18 17 17 17 16 16 16 16 16 15 15 15 15 15 15 15 14 14 14 14 14 14 13 13 13 13 13 13 13 14 14 15 15 15 15 15 15 14
18 18 18 18 18 17 17 17 17 16 16 16 16 15 15 15 15 15 15 15 15 14 14 14 14 14 13 13 13 13 13 13 13 13 13 14 14 14 15 15 15 15 15
18 17 18 17 17 17 17 17 16 16 16 16 16 16 15 15 15 15 15 15 14 14 14 14 14 13 13 13 13 13 13 13 13 13 13 13 13 14 14 14 15 15 14
17 17 17 17 17 17 17 16 16 16 16 16 16 16 15 15 15 15 15 15 14 14 14 14 14 13 13 13 13 13 13 13 13 13 13 13 13 13 14 14 14 14 14
17 16 16 16 16 16 16 16 16 16 16 16 16 16 15 15 15 15 15 15 14 14 14 14 14 13 13 13 13 13 13 13 13 12 12 12 13 13 13 13 13 14 14
16 16 15 15 15 15 15 15 16 16 16 16 16 15 15 15 15 15 15 15 14 14 14 14 14 13 13 13 13 13 13 13 13 12 12 12 12 12 12 13 13 13 13
14 14 14 14 14 14 14 15 15 15 15 15 15 15 15 15 15 15 15 14 14 14 14 14 14 13 13 13 13 13 13 13 13 13 12 12 12 12 12 12 12 12 12
13 13 13 13 13 13 13 14 14 14 14 14 14 14 14 14 14 14 14 14 14 14 14 14 14 14 13 13 13 13 13 13 13 13 12 12 12 12 12 12 12 12 12
12 12 12 12 12 12 12 12 13 13 13 13 13 13 14 14 14 14 14 14 14 14 14 14 14 14 14 13 13 13 13 13 13 13 13 12 12 12 12 12 12 12 12
12 12 12 12 12 12 12 12 12 12 12 12 12 13 13 13 13 14 14 14 14 14 14 14 14 14 13 13 13 13 13 13 13 13 12 12 12 12 12 12 12 12 12
12 12 12 12 12 11 11 11 11 11 12 12 12 12 12 13 13 13 13 13 13 14 13 13 13 13 13 13 13 13 13 13 12 12 12 12 12 12 12 12 12 12 11
12 12 12 11 11 11 11 11 11 11 11 11 11 12 12 12 12 13 13 13 13 13 13 13 13 13 13 13 13 13 12 12 12 12 12 12 12 12 12 12 12 11 11
12 12 11 11 11 11 11 11 11 11 11 11 11 11 12 12 12 12 12 12 12 13 13 13 12 12 12 12 12 12 12 12 12 11 11 11 12 12 12 12 11 11 11
12 12 11 11 11 11 11 11 11 11 10 11 11 11 11 11 11 11 12 12 12 12 12 12 12 12 12 12 12 11 11 11 11 11 11 11 11 11 11 11 11 11 11
12 12 11 11 11 11 11 10 10 10 10 10 10 11 11 11 11 11 11 11 11 11 11 11 11 11 11 11 11 11 11 11 10 10 10 10 10 10 10 10 10 10 10
12 12 11 11 11 11 11 10 10 10 10 10 10 10 10 10 11 11 11 11 11 11 11 11 10 10 10 10 10 10 10 10 10 10 10 10 10 10 10 10 9 9 9
13 12 11 11 11 11 11 10 10 10 10 10 10 10 10 10 10 10 10 10 10 10 10 10 10 10 10 10 10 10 10 9 9 9 9 9 9 9 9 9 9 9 9
13 12 12 11 11 11 10 10 10 10 9 9 9 9 9 9 10 10 10 10 10 9 9 9 9 9 9 9 9 9 9 9 9 9 9 9 9 8 8 8 8 8 8
13 12 12 11 11 11 10 10 10 10 9 9 9 9 9 9 9 9 9 9 9 9 9 9 9 9 9 9 9 9 9 9 9 9 8 8 8 8 8 7 7 7 7
13 12 12 11 11 11 10 10 10 10 9 9 9 9 9 9 9 9 9 8 8 8 8 8 8 8 8 8 9 9 9 9 8 8 8 8 7 7 7 7 6 6 6
13 12 12 11 11 11 11 10 10 10 9 9 9 9 9 9 9 9 9 8 8 8 8 8 8 8 8 8 8 8 8 8 8 8 8 7 7 6 6 6 6 6 6
13 12 12 11 11 11 11 10 10 10 10 9 9 9 9 9 9 9 8 8 8 8 8 8 8 8 8 8 8 8 8 8 8 8 7 7 6 6 5 5 5 5 5
13 12 12 11 11 11 11 10 10 10 10 10 9 9 9 9 9 8 8 8 8 8 8 8 8 8 8 8 8 8 8 8 7 7 6 6 5 5 5 5 5 5 5
13 12 12 11 11 11 11 11 10 10 10 10 9 9 9 9 9 8 8 8 8 8 8 8 8 8 8 8 8 8 7 7 7 7 6 5 5 5 5 4 4 4 4
13 12 12 11 11 11 11 11 10 10 10 10 10 9 9 9 9 8 8 8 8 8 8 8 8 8 8 8 7 7 7 7 6 6 6 5 5 5 5 4 4 4 4
Wind_Speed
2 3 4 3 3 4 3 2 2 2 3 3 4 4 4 4 4 5 5 5 6 5 5 6 6 6 6 6 6 5 5 5 5 3 2 2 4 5 5 10 11 10 10
2 3 4 4 5 4 3 2 2 1 2 3 4 4 4 4 5 5 5 5 5 5 5 5 6 5 7 6 6 7 6 6 5 6 3 3 3 3 3 4 6 9 10
1 3 4 4 4 3 2 2 2 1 1 2 3 4 4 5 5 5 5 4 5 5 5 5 5 5 6 5 6 6 6 6 5 5 4 3 2 2 2 3 4 5 7
1 2 3 3 2 1 1 1 1 1 2 2 3 3 4 4 5 5 5 4 4 4 4 4 4 5 6 5 5 5 5 5 5 5 4 3 2 2 2 3 3 4 5
4 4 2 2 2 1 1 1 1 1 2 2 2 2 3 4 5 6 5 5 4 4 3 3 4 5 6 5 4 4 5 4 4 4 4 3 4 3 4 4 5 3 4
6 5 4 4 2 1 1 1 1 1 1 1 2 3 4 4 6 9 7 5 5 4 4 3 3 3 4 6 6 6 7 5 5 4 4 5 5 4 4 4 4 3 3
8 8 7 6 4 4 3 3 2 2 2 1 2 3 4 5 6 7 9 6 5 5 4 3 2 3 3 2 4 5 6 9 8 5 5 5 4 5 5 5 5 5 5
9 8 8 7 6 6 5 5 4 3 2 2 3 3 3 4 6 6 8 6 5 4 4 5 4 3 3 3 3 2 3 4 5 5 5 5 5 5 5 5 5 4 2
8 8 8 7 7 7 7 6 4 3 3 3 2 3 3 4 4 4 6 5 4 3 3 4 4 4 5 5 4 3 3 3 4 6 7 7 7 8 6 3 3 3 3
7 7 7 7 7 7 7 6 5 4 4 4 4 3 3 3 4 3 6 4 4 3 2 2 4 5 5 5 4 3 3 3 2 2 3 4 5 6 9 7 5 4 3
5 6 7 7 7 7 7 6 6 6 5 5 5 5 4 4 5 2 5 4 4 3 2 2 2 3 3 5 5 4 4 2 1 2 2 3 2 2 3 4 5 5 5
4 6 7 7 7 7 7 7 7 7 7 6 6 6 5 5 5 3 2 4 5 4 2 1 1 1 3 3 3 2 2 1 1 1 1 2 2 2 2 2 4 5 5
4 5 5 6 7 7 7 8 7 7 6 6 5 5 5 5 6 7 5 4 5 3 2 3 3 4 5 4 3 3 2 2 1 1 1 2 2 2 1 0 0 0 0
2 2 3 4 5 6 6 6 6 7 6 6 5 5 5 5 5 5 4 3 5 5 4 6 8 8 6 5 4 4 3 1 1 1 1 2 2 2 1 1 1 1 1
1 1 2 2 3 4 5 5 5 5 5 5 4 4 4 5 6 5 3 2 2 4 4 4 3 3 3 3 3 3 3 3 2 2 2 2 2 2 2 2 1 1 1
1 0 0 1 1 2 3 3 5 5 8 9 8 5 4 5 6 8 7 6 6 7 5 4 3 3 3 3 3 3 3 3 3 2 2 2 2 2 2 2 2 1 1
3 2 0 0 0 0 1 2 3 5 7 10 12 11 9 8 9 10 11 11 10 8 6 5 4 4 3 3 3 3 3 3 3 3 3 3 3 2 2 2 2 2 2
3 2 1 1 0 1 1 1 2 3 4 5 7 11 12 11 11 11 10 9 8 7 5 5 4 4 4 4 4 3 3 4 4 4 4 4 3 3 3 3 3 3 3
3 2 1 1 1 2 2 2 2 3 3 3 4 6 9 9 12 13 10 7 6 6 6 6 5 5 5 5 4 4 4 4 4 4 4 4 4 3 3 3 3 4 3
3 4 4 2 2 2 2 3 3 3 3 4 5 4 5 5 6 7 7 6 6 6 5 6 5 5 5 5 4 4 5 5 5 5 4 4 4 3 4 4 4 3 3
3 3 5 4 3 2 3 3 3 3 3 3 3 5 5 5 5 6 6 6 6 5 5 5 5 6 5 5 5 5 6 5 5 4 4 4 4 4 4 3 3 3 3
4 4 3 3 3 3 3 3 3 3 3 3 3 4 7 5 5 5 5 5 5 5 5 5 5 5 5 5 5 5 5 4 4 5 5 4 4 4 4 4 4 4 4
5 4 4 3 3 4 4 3 3 3 3 2 2 3 3 4 4 5 5 4 4 5 5 5 5 4 5 6 6 4 4 4 4 4 4 4 4 4 4 4 5 4 4
5 5 5 4 4 4 4 3 3 3 3 3 2 2 3 3 4 4 4 4 4 4 6 6 6 6 7 6 6 5 5 6 6 4 3 3 4 4 4 4 4 5 4
5 5 5 4 4 4 4 4 3 3 3 3 2 2 3 3 4 4 4 4 4 5 6 6 6 6 7 7 7 7 8 8 6 5 3 3 3 4 4 4 4 4 4
5 5 4 4 4 4 4 4 4 4 4 3 3 3 3 4 4 4 4 4 4 4 4 5 6 6 7 7 8 9 8 8 8 7 5 4 4 4 4 4 5 4 5
Wind_Direction
118 116 103 101 99 95 97 106 132 145 159 167 172 173 176 177 176 182 192 186 196 200 197 199 209 203 204 204 202 199 197 188 212 230 223 202 191 204 199 204 212 218 226
148 119 109 102 93 85 80 71 80 124 160 171 168 175 185 183 179 186 196 194 197 203 203 202 210 209 211 207 205 207 204 199 203 216 214 202 203 201 186 193 207 218 224
154 122 112 101 93 86 81 81 84 114 158 167 171 186 194 190 187 191 195 197 201 205 203 206 212 207 212 209 209 211 210 212 207 206 208 193 182 150 153 199 209 215 222
64 92 88 91 96 102 98 91 168 178 188 200 196 200 203 196 192 189 187 193 199 203 204 208 210 209 214 210 215 215 210 210 207 210 205 193 188 164 163 190 215 214 225
42 56 49 56 72 79 104 173 202 205 206 205 200 202 206 198 200 192 188 189 193 194 197 207 213 216 217 210 211 210 206 209 210 215 211 196 193 182 199 191 210 202 228
39 37 28 34 32 358 310 282 287 289 281 209 220 225 225 225 214 199 186 182 182 187 196 207 223 226 230 226 227 219 207 204 208 211 213 216 213 203 187 186 181 175 244
33 28 22 19 18 3 2 7 350 329 326 302 262 242 244 248 241 216 194 176 180 187 190 192 211 214 213 219 246 246 233 229 220 206 213 219 212 203 191 197 197 200 216
28 25 20 19 15 6 10 7 2 360 347 323 298 275 263 262 248 227 197 176 179 188 193 198 209 222 215 205 215 239 254 251 237 226 223 227 221 208 200 204 204 206 200
19 15 12 14 16 14 11 0 356 354 347 333 317 307 283 285 271 232 180 162 175 192 196 199 203 219 234 210 193 231 273 284 269 248 241 242 240 227 200 186 190 195 222
0 3 9 14 18 14 5 358 354 354 350 349 351 351 333 308 303 255 173 156 167 171 179 206 217 222 234 208 188 203 254 279 291 309 291 281 264 246 222 208 205 209 211
352 12 17 14 17 17 11 10 7 9 13 17 17 12 5 353 341 319 178 161 168 167 182 208 230 228 224 203 186 199 235 250 263 287 309 308 297 270 242 221 212 213 217
21 28 23 18 19 20 19 18 18 20 26 23 21 17 12 4 4 5 123 159 156 158 181 190 190 122 120 134 158 208 247 188 106 8 335 321 308 289 266 241 228 226 231
40 35 28 27 27 25 27 23 21 22 24 21 20 16 8 7 10 26 51 95 130 122 123 130 111 97 89 81 73 76 84 95 88 2 330 317 305 304 320 339 26 235 261
61 39 33 35 34 32 32 28 28 23 20 18 17 12 7 9 12 16 27 59 78 82 81 82 80 76 70 66 61 55 54 69 81 358 334 335 343 8 22 25 28 9 341
121 34 37 40 44 38 36 31 24 23 19 17 9 6 9 10 357 3 38 63 85 103 94 70 59 58 57 51 50 45 39 43 44 26 22 20 17 21 20 20 35 34 353
194 266 355 26 43 45 30 21 25 27 27 35 36 31 18 18 19 39 51 71 94 105 84 73 64 59 58 54 54 44 37 34 27 33 38 33 28 26 22 20 22 16 331
194 209 206 92 66 63 27 24 14 7 21 31 30 33 37 39 50 57 65 71 70 74 73 70 65 60 58 57 54 54 43 31 33 42 42 31 25 22 23 17 6 356 339
177 180 164 159 109 94 85 57 39 34 20 4 10 27 37 48 53 55 60 67 57 52 59 64 61 57 56 55 52 50 49 44 42 42 36 29 23 20 18 10 2 351 336
161 156 138 122 106 98 96 87 67 56 45 20 12 16 24 44 50 49 53 63 65 56 52 53 52 52 50 49 47 46 49 46 38 35 30 23 16 15 9 0 354 349 345
165 169 149 127 107 101 98 96 83 67 52 41 30 12 7 40 48 42 44 52 59 58 57 56 51 49 46 42 40 40 44 42 34 29 20 13 8 7 358 351 348 342 331
152 147 136 118 113 118 118 113 107 95 77 57 33 26 53 67 63 56 53 50 52 54 55 55 51 46 42 40 41 43 45 39 30 19 11 5 360 355 347 343 339 337 329
148 142 133 132 127 123 122 120 116 109 98 79 47 42 59 68 69 66 62 58 54 51 51 61 61 52 43 39 39 42 40 31 16 6 1 357 353 351 349 348 348 344 343
149 144 133 128 128 129 121 120 122 122 116 102 86 71 69 74 75 75 73 68 63 56 53 59 61 50 43 43 41 38 29 11 353 347 347 348 350 351 352 355 356 355 358
154 152 147 141 136 138 140 142 142 142 140 131 117 104 102 99 93 89 85 81 74 63 59 59 60 53 45 38 30 20 5 348 337 332 335 339 345 349 358 5 6 3 0
157 156 155 156 156 156 156 158 160 162 160 156 147 133 124 119 110 104 99 92 85 73 63 57 51 44 34 26 15 5 1 5 8 1 355 355 2 9 16 16 17 15 16
164 163 161 160 163 166 169 173 178 178 176 170 160 154 148 140 132 124 119 111 100 85 72 57 47 39 26 17 10 11 19 25 28 33 40 41 37 32 31 33 31 30 30
Height
1492 1493 1495 1496 1497 1498 1500 1501 1502 1503 1504 1504 1505 1505 1505 1506 1506 1507 1508 1508 1509 1510 1511 1512 1514 1515 1517 1518 1519 1521 1522 1524 1525 1527 1529 1532 1534 1536 1538 1540 1541 1542 1543
1492 1493 1494 1495 1496 1497 1499 1500 1501 1502 1503 1503 1503 1504 1504 1505 1505 1505 1506 1506 1507 1508 1508 1509 1510 1511 1512 1513 1515 1516 1517 1519 1521 1522 1524 1527 1529 1531 1533 1535 1537 1538 1539
1491 1492 1493 1493 1494 1496 1497 1498 1499 1501 1501 1502 1502 1503 1503 1504 1504 1504 1504 1505 1505 1505 1506 1507 1508 1508 1509 1510 1511 1512 1513 1514 1516 1517 1519 1522 1524 1526 1528 1530 1532 1534 1535
1489 1490 1491 1491 1492 1493 1494 1495 1497 1498 1499 1500 1500 1501 1502 1502 1502 1503 1503 1503 1503 1504 1504 1505 1505 1506 1507 1507 1508 1509 1510 1510 1512 1513 1515 1517 1519 1521 1523 1525 1527 1529 1531
1488 1488 1489 1489 1490 1491 1492 1493 1494 1495 1496 1498 1498 1499 1500 1500 1501 1501 1501 1501 1502 1502 1502 1503 1503 1504 1505 1505 1506 1506 1507 1508 1508 1509 1511 1513 1514 1516 1518 1520 1522 1524 1526
1489 1488 1488 1488 1489 1489 1490 1490 1491 1492 1494 1494 1495 1497 1497 1498 1499 1499 1500 1500 1500 1500 1501 1502 1502 1502 1503 1503 1504 1505 1505 1506 1506 1507 1508 1509 1510 1512 1514 1515 1517 1519 1520
1490 1488 1488 1488 1488 1488 1488 1488 1489 1490 1490 1491 1492 1494 1494 1495 1496 1497 1498 1498 1499 1499 1500 1500 1501 1501 1502 1502 1503 1503 1504 1504 1505 1505 1505 1506 1507 1508 1509 1511 1512 1513 1515
1491 1490 1489 1488 1487 1487 1486 1486 1487 1487 1487 1488 1489 1490 1491 1493 1494 1495 1495 1496 1497 1498 1498 1499 1500 1501 1501 1502 1502 1502 1502 1502 1503 1503 1503 1504 1504 1505 1506 1507 1507 1508 1510
1494 1492 1490 1489 1488 1486 1485 1485 1485 1485 1485 1485 1486 1487 1488 1489 1491 1492 1493 1494 1495 1496 1497 1498 1499 1499 1500 1500 1501 1501 1501 1501 1501 1501 1501 1501 1501 1502 1503 1503 1504 1504 1505
1497 1495 1493 1491 1489 1487 1486 1485 1484 1483 1483 1483 1484 1484 1485 1486 1487 1488 1490 1491 1492 1494 1495 1496 1497 1498 1499 1499 1500 1500 1500 1500 1499 1499 1499 1499 1499 1499 1499 1500 1500 1501 1501
1500 1497 1495 1492 1490 1488 1487 1485 1484 1483 1482 1482 1482 1482 1482 1483 1484 1485 1487 1489 1490 1492 1493 1494 1495 1496 1497 1497 1498 1498 1498 1498 1497 1497 1496 1496 1496 1496 1497 1497 1497 1498 1498
1502 1500 1497 1494 1492 1490 1488 1486 1484 1483 1482 1481 1481 1481 1481 1481 1482 1483 1485 1486 1488 1489 1491 1492 1493 1494 1495 1495 1496 1496 1496 1496 1495 1495 1495 1494 1494 1494 1494 1494 1494 1495 1495
1504 1502 1499 1497 1494 1492 1490 1488 1486 1484 1483 1482 1482 1481 1481 1481 1481 1482 1483 1484 1486 1487 1489 1490 1491 1492 1493 1494 1494 1494 1494 1494 1493 1493 1493 1493 1492 1492 1492 1492 1492 1492 1492
1506 1504 1501 1499 1497 1494 1492 1490 1488 1486 1485 1484 1483 1482 1482 1481 1481 1482 1483 1484 1485 1486 1487 1488 1489 1490 1491 1492 1493 1493 1493 1493 1492 1492 1492 1491 1491 1491 1490 1490 1490 1490 1490
1507 1505 1503 1501 1499 1497 1495 1493 1491 1489 1487 1486 1485 1484 1483 1482 1482 1483 1483 1484 1484 1485 1486 1488 1489 1490 1491 1491 1492 1492 1492 1492 1492 1492 1491 1491 1490 1490 1489 1489 1488 1488 1488
1507 1506 1504 1502 1501 1499 1497 1495 1493 1492 1490 1488 1487 1486 1485 1485 1484 1484 1484 1485 1485 1486 1487 1488 1489 1490 1490 1491 1491 1492 1492 1492 1491 1491 1491 1490 1490 1489 1488 1488 1487 1487 1486
1507 1506 1505 1503 1502 1500 1499 1497 1495 1494 1493 1491 1490 1489 1488 1487 1487 1486 1486 1487 1487 1488 1488 1489 1490 1490 1491 1491 1491 1492 1492 1492 1491 1491 1491 1490 1489 1489 1488 1487 1486 1485 1485
1507 1506 1505 1504 1502 1501 1500 1499 1497 1496 1495 1494 1493 1492 1491 1490 1490 1489 1489 1490 1490 1490 1490 1491 1491 1492 1492 1492 1492 1492 1492 1492 1491 1491 1490 1489 1489 1488 1487 1486 1485 1484 1483
1506 1506 1505 1504 1503 1502 1501 1500 1499 1498 1497 1497 1496 1495 1494 1494 1493 1493 1493 1493 1492 1493 1493 1493 1493 1493 1493 1493 1493 1492 1492 1491 1491 1490 1489 1488 1487 1486 1485 1484 1483 1482 1481
1506 1505 1505 1504 1504 1503 1502 1502 1501 1500 1499 1499 1498 1498 1497 1497 1497 1496 1496 1496 1495 1495 1495 1495 1495 1495 1494 1494 1493 1493 1492 1491 1490 1489 1488 1487 1486 1484 1483 1482 1481 1480 1478
1505 1505 1505 1505 1504 1504 1503 1503 1502 1502 1501 1501 1501 1501 1501 1500 1500 1499 1499 1499 1498 1498 1498 1497 1496 1496 1495 1494 1493 1492 1491 1490 1489 1487 1486 1485 1484 1482 1481 1480 1479 1478 1476
1505 1505 1505 1505 1505 1505 1504 1504 1504 1504 1503 1503 1503 1503 1503 1503 1502 1502 1501 1501 1500 1500 1499 1498 1497 1497 1495 1494 1493 1492 1490 1489 1487 1486 1485 1483 1482 1481 1480 1479 1478 1476 1475
1504 1505 1505 1505 1505 1505 1505 1505 1505 1505 1505 1505 1505 1505 1505 1505 1504 1504 1503 1503 1502 1501 1500 1499 1498 1497 1496 1494 1493 1491 1490 1488 1486 1485 1483 1482 1481 1480 1479 1478 1476 1475 1473
1504 1504 1505 1505 1505 1506 1506 1506 1507 1507 1507 1507 1507 1507 1507 1506 1506 1505 1505 1504 1503 1502 1501 1500 1499 1497 1496 1494 1492 1491 1489 1487 1485 1484 1483 1481 1480 1479 1478 1476 1475 1473 1472
1503 1504 1504 1505 1505 1506 1506 1507 1507 1508 1508 1508 1508 1508 1508 1507 1507 1506 1506 1505 1504 1503 1502 1500 1499 1498 1496 1494 1492 1491 1489 1487 1486 1484 1482 1481 1480 1478 1477 1475 1474 1472 1471
1503 1503 1504 1504 1505 1505 1506 1507 1507 1508 1508 1508 1509 1509 1508 1508 1507 1507 1506 1505 1504 1503 1502 1501 1500 1498 1497 1495 1493 1491 1489 1488 1486 1484 1483 1481 1480 1478 1477 1475 1474 1473 1471